map of AGH home
AGH - Airport
Location
City:  Ängelholm, Sweden
Near (Alt.):Helsingborg
ICAO:ESTA
IATA:AGH

Details
Type:Airport (Aerodrome, Airfield)
Use:Public/Civil
Latitude:56°17'46"N (56.296072)
Longitude:12°50'50"E (12.847139)
Datum:WGS 1984
Elevation:68 ft (21 m)
Variation:3.96°E (WMM2015 magnetic declination)
0.15° annual change
Runways:2
Longest:6552 × 131 ft (1997 × 40 m), paved

Time
Time Zone:UTC+1 (DST+2)
Local Time:

Weather
METAR:ESTA 152020Z VRB03KT CAVOK 10/07 Q1015

Related Locations
Nearby:
Farthest:CHT: 11476 mi / 18469 km
Waitangi [Tuuta], CIT, NZ

Find:

   beyond  
but within

Other Information
Maps:
NOTAMs:
Links:
Sources:

  
  • flag of Sweden
  

Sectional Chart

Flight Planning
at skyvector.com

Satellite Image

Google Maps Satellite view

 

Copyright © 2004-2018 Karl L. Swartz. All rights reserved.
The Great Circle Mapper name and logo are trademarks of the Great Circle Mapper.
All other trademarks mentioned herein belong to their respective owners.
Please see credits for attibutions and further copyright information.

  Follow gcmap on Facebook Follow gcmap on Twitter Follow gcmap on Google+ GCmap on LinkedIn

hCard Microformat

Geo Microformat